Terug naar catalogus

STARLINK-1893

ActiefCommunicatieVLEO
NORAD 46786·PAYLOAD·🇺🇸 United States

Gelanceerd Oct 24, 2020 vanaf Cape Canaveral Space Force Station

Loading…

Volgende Passages (komende 24 uur)

TLE

VersSource: CelesTrak SupGP

Epoch: Sep 15, 2026, 02:03 UTC

1 46786C 20074AZ  26258.08590278  .02047800  00000+0  10964-2 0  2586
2 46786  53.0272  44.9557 0010658 306.4470  44.5596 16.19002958    15

Volg STARLINK-1893 in realtime met AllMySat

Download on the App Store